,,,PA_Meas_PMT16A,,PR_Meas_QMR101_102,,RH_Meas_QMH101,,SR_Meas_QMS101,,TA_Meas_QMH101,,GenWind,,GenWind,
date,time,status,PA,status,PR,status,RH,status,SR,status,TA,status,DirAvg,status,SpdAvg,
2012-06-15, 00:00:04,VALID,1000.73,VALID,0,VALID,78.4249,VALID,0,VALID,24.8332,VALID,146,VALID,1.89063,
2012-06-15, 00:01:04,VALID,1000.74,VALID,0,VALID,78.2112,VALID,0,VALID,24.8332,VALID,151,VALID,2.39453,
2012-06-15, 00:02:04,VALID,1000.73,VALID,0,VALID,78.3867,VALID,0,VALID,24.8332,VALID,145,VALID,1.82891,
2012-06-15, 00:03:04,VALID,1000.7,VALID,0,VALID,78.5622,VALID,0,VALID,24.7746,VALID,149,VALID,1.83867,
2012-06-15, 00:04:04,VALID,1000.67,VALID,0,VALID,78.6843,VALID,0,VALID,24.716,VALID,153,VALID,2.21719,
2012-06-15, 00:05:04,VALID,1000.62,VALID,0,VALID,78.8445,VALID,0,VALID,24.6965,VALID,148,VALID,2.00312,
2012-06-15, 00:06:04,VALID,1000.59,VALID,0,VALID,79.0429,VALID,0,VALID,24.6789,VALID,145,VALID,2.07539,
2012-06-15, 00:07:04,VALID,1000.56,VALID,0,VALID,79.2718,VALID,0,VALID,24.6184,VALID,140,VALID,1.60508,
2012-06-15, 00:08:04,VALID,1000.53,VALID,0,VALID,79.4701,VALID,0,VALID,24.5813,VALID,152,VALID,2.01172,
2012-06-15, 00:09:04,VALID,1000.54,VALID,0,VALID,79.5159,VALID,0,VALID,24.5794,VALID,153,VALID,1.87305,
2012-06-15, 00:10:04,VALID,1000.52,VALID,0,VALID,79.5312,VALID,0,VALID,24.5794,VALID,148,VALID,1.83555,
2012-06-15, 00:11:04,VALID,1000.52,VALID,0,VALID,79.6227,VALID,0,VALID,24.5599,VALID,149,VALID,1.69961,
2012-06-15, 00:12:04,VALID,1000.47,VALID,0,VALID,79.6609,VALID,0,VALID,24.5404,VALID,153,VALID,1.3293,
2012-06-15, 00:13:04,VALID,1000.49,VALID,0,VALID,79.4701,VALID,0,VALID,24.5618,VALID,157,VALID,1.76055,
2012-06-15, 00:14:04,VALID,1000.47,VALID,0,VALID,79.432,VALID,0,VALID,24.5404,VALID,149,VALID,1.70977,
2012-06-15, 00:15:04,VALID,1000.44,VALID,0,VALID,79.3709,VALID,0,VALID,24.5404,VALID,137,VALID,1.6125,
2012-06-15, 00:16:04,VALID,1000.47,VALID,0,VALID,79.0505,VALID,0,VALID,24.5989,VALID,143,VALID,2.03359,
2012-06-15, 00:17:04,VALID,1000.46,VALID,0,VALID,79.1039,VALID,0,VALID,24.5989,VALID,147,VALID,2.4,
2012-06-15, 00:18:04,VALID,1000.44,VALID,0,VALID,79.1039,VALID,0,VALID,24.6203,VALID,149,VALID,1.89258,
2012-06-15, 00:19:04,VALID,1000.4,VALID,0,VALID,79.1192,VALID,0,VALID,24.6184,VALID,150,VALID,1.52148,
2012-06-15, 00:20:04,VALID,1000.39,VALID,0,VALID,79.1955,VALID,0,VALID,24.5989,VALID,150,VALID,1.64609,
2012-06-15, 00:21:04,VALID,1000.37,VALID,0,VALID,79.2107,VALID,0,VALID,24.5794,VALID,167,VALID,2.23633,
2012-06-15, 00:22:04,VALID,1000.37,VALID,0,VALID,78.9589,VALID,0,VALID,24.6184,VALID,163,VALID,2.10859,
2012-06-15, 00:23:04,VALID,1000.34,VALID,0,VALID,78.8292,VALID,0,VALID,24.638,VALID,154,VALID,2.06562,
2012-06-15, 00:24:04,VALID,1000.36,VALID,0,VALID,78.6538,VALID,0,VALID,24.677,VALID,153,VALID,2.3668,
2012-06-15, 00:25:04,VALID,1000.28,VALID,0,VALID,78.8369,VALID,0,VALID,24.6575,VALID,149,VALID,1.81094,
2012-06-15, 00:26:04,VALID,1000.28,VALID,0,VALID,78.9818,VALID,0,VALID,24.638,VALID,138,VALID,1.71406,
2012-06-15, 00:27:04,VALID,1000.25,VALID,0,VALID,79.1039,VALID,0,VALID,24.6184,VALID,141,VALID,1.86523,
2012-06-15, 00:28:04,VALID,1000.22,VALID,0,VALID,79.3862,VALID,0,VALID,24.5794,VALID,127,VALID,1.65234,
2012-06-15, 00:29:04,VALID,1000.24,VALID,0,VALID,79.7524,VALID,0,VALID,24.5209,VALID,125,VALID,1.57656,
2012-06-15, 00:30:04,VALID,1000.25,VALID,0,VALID,80.0957,VALID,0,VALID,24.4428,VALID,135,VALID,1.63437,
2012-06-15, 00:31:04,VALID,1000.25,VALID,0,VALID,80.1263,VALID,0,VALID,24.4233,VALID,136,VALID,1.75664,
2012-06-15, 00:32:04,VALID,1000.27,VALID,0,VALID,80.2026,VALID,0,VALID,24.4428,VALID,137,VALID,1.55508,
2012-06-15, 00:33:04,VALID,1000.27,VALID,0,VALID,80.4162,VALID,0,VALID,24.4233,VALID,131,VALID,1.38008,
2012-06-15, 00:34:04,VALID,1000.23,VALID,0,VALID,80.5078,VALID,0,VALID,24.3842,VALID,129,VALID,1.41406,
2012-06-15, 00:35:04,VALID,1000.25,VALID,0,VALID,80.5917,VALID,0,VALID,24.3647,VALID,128,VALID,1.86172,
2012-06-15, 00:36:04,VALID,1000.21,VALID,0,VALID,80.7138,VALID,0,VALID,24.3452,VALID,131,VALID,1.60391,
2012-06-15, 00:37:04,VALID,1000.22,VALID,0,VALID,80.6985,VALID,0,VALID,24.3238,VALID,131,VALID,1.33516,
2012-06-15, 00:38:04,VALID,1000.21,VALID,0,VALID,80.5917,VALID,0,VALID,24.3647,VALID,147,VALID,1.51836,
2012-06-15, 00:39:04,VALID,1000.19,VALID,0,VALID,80.3475,VALID,0,VALID,24.4037,VALID,159,VALID,2.40117,
2012-06-15, 00:40:04,VALID,1000.19,VALID,0,VALID,79.9508,VALID,0,VALID,24.5013,VALID,148,VALID,1.71445,
2012-06-15, 00:41:04,VALID,1000.21,VALID,0,VALID,80.0118,VALID,0,VALID,24.5013,VALID,145,VALID,1.61445,
2012-06-15, 00:42:04,VALID,1000.2,VALID,0,VALID,79.9889,VALID,0,VALID,24.5013,VALID,151,VALID,1.2125,
2012-06-15, 00:43:04,VALID,1000.23,VALID,0,VALID,79.7753,VALID,0,VALID,24.48,VALID,147,VALID,1.75312,
2012-06-15, 00:44:04,VALID,1000.2,VALID,0,VALID,79.699,VALID,0,VALID,24.4995,VALID,160,VALID,1.40859,
2012-06-15, 00:45:04,VALID,1000.16,VALID,0,VALID,79.905,VALID,0,VALID,24.5013,VALID,150,VALID,1.12383,
2012-06-15, 00:46:04,VALID,1000.15,VALID,0,VALID,80.0347,VALID,0,VALID,24.4623,VALID,144,VALID,1.53555,
2012-06-15, 00:47:04,VALID,1000.15,VALID,0,VALID,80.1415,VALID,0,VALID,24.4409,VALID,134,VALID,1.37969,
2012-06-15, 00:48:04,VALID,1000.13,VALID,0,VALID,80.2407,VALID,0,VALID,24.4428,VALID,137,VALID,1.74688,
2012-06-15, 00:49:04,VALID,1000.11,VALID,0,VALID,80.4162,VALID,0,VALID,24.4037,VALID,137,VALID,1.625,
2012-06-15, 00:50:04,VALID,1000.1,VALID,0,VALID,80.4849,VALID,0,VALID,24.3824,VALID,140,VALID,1.91172,
2012-06-15, 00:51:04,VALID,1000.12,VALID,0,VALID,80.5993,VALID,0,VALID,24.4037,VALID,154,VALID,1.37461,
2012-06-15, 00:52:04,VALID,1000.12,VALID,0,VALID,80.6527,VALID,0,VALID,24.3842,VALID,151,VALID,1.34219,
2012-06-15, 00:53:04,VALID,1000.1,VALID,0,VALID,80.6985,VALID,0,VALID,24.3842,VALID,132,VALID,1.18906,
2012-06-15, 00:54:04,VALID,1000.03,VALID,0,VALID,80.8206,VALID,0,VALID,24.3647,VALID,143,VALID,1.10508,
2012-06-15, 00:55:04,VALID,1000.03,VALID,0,VALID,81.0113,VALID,0,VALID,24.3062,VALID,144,VALID,1.46719,
2012-06-15, 00:56:04,VALID,999.992,VALID,0,VALID,81.2707,VALID,0,VALID,24.2866,VALID,141,VALID,1.3332,
2012-06-15, 00:57:04,VALID,1000,VALID,0,VALID,81.4004,VALID,0,VALID,24.2458,VALID,148,VALID,1.27305,
2012-06-15, 00:58:04,VALID,999.914,VALID,0,VALID,81.5759,VALID,0,VALID,24.2476,VALID,139,VALID,1.12812,
2012-06-15, 00:59:04,VALID,999.916,VALID,0,VALID,81.6903,VALID,0,VALID,24.2281,VALID,136,VALID,1.89766,
2012-06-15, 01:00:04,VALID,999.885,VALID,0,VALID,81.6674,VALID,0,VALID,24.2281,VALID,140,VALID,1.56367,
2012-06-15, 01:01:04,VALID,999.912,VALID,0,VALID,81.8048,VALID,0,VALID,24.2067,VALID,145,VALID,1.17461,
2012-06-15, 01:02:04,VALID,999.917,VALID,0,VALID,81.7666,VALID,0,VALID,24.2281,VALID,150,VALID,1.98281,
2012-06-15, 01:03:04,VALID,999.935,VALID,0,VALID,81.5683,VALID,0,VALID,24.2476,VALID,148,VALID,1.51836,
2012-06-15, 01:04:04,VALID,999.969,VALID,0,VALID,81.4157,VALID,0,VALID,24.2866,VALID,160,VALID,1.15195,
2012-06-15, 01:05:04,VALID,999.949,VALID,0,VALID,81.4462,VALID,0,VALID,24.2653,VALID,150,VALID,1.66523,
2012-06-15, 01:06:04,VALID,999.933,VALID,0,VALID,81.3089,VALID,0,VALID,24.3043,VALID,155,VALID,1.70703,
2012-06-15, 01:07:04,VALID,999.916,VALID,0,VALID,81.2173,VALID,0,VALID,24.3433,VALID,143,VALID,1.08477,
2012-06-15, 01:08:04,VALID,999.894,VALID,0,VALID,81.3317,VALID,0,VALID,24.3238,VALID,144,VALID,1.09648,
2012-06-15, 01:09:04,VALID,999.88,VALID,0,VALID,81.3241,VALID,0,VALID,24.2848,VALID,150,VALID,1.41289,
2012-06-15, 01:10:04,VALID,999.856,VALID,0,VALID,81.3775,VALID,0,VALID,24.3062,VALID,147,VALID,1.48008,
2012-06-15, 01:11:04,VALID,999.831,VALID,0,VALID,81.3089,VALID,0,VALID,24.3062,VALID,149,VALID,1.17188,
2012-06-15, 01:12:04,VALID,999.845,VALID,0,VALID,81.1105,VALID,0,VALID,24.3452,VALID,149,VALID,1.10078,
2012-06-15, 01:13:04,VALID,999.836,VALID,0,VALID,80.996,VALID,0,VALID,24.3842,VALID,153,VALID,0.906641,
2012-06-15, 01:14:04,VALID,999.853,VALID,0,VALID,81.1029,VALID,0,VALID,24.3647,VALID,152,VALID,0.767578,
2012-06-15, 01:15:04,VALID,999.86,VALID,0,VALID,81.1257,VALID,0,VALID,24.3452,VALID,152,VALID,0.885938,
2012-06-15, 01:16:04,VALID,999.858,VALID,0,VALID,81.1792,VALID,0,VALID,24.3062,VALID,157,VALID,1.00547,
2012-06-15, 01:17:04,VALID,999.841,VALID,0,VALID,81.2707,VALID,0,VALID,24.2848,VALID,157,VALID,0.999609,
2012-06-15, 01:18:04,VALID,999.834,VALID,0,VALID,81.2631,VALID,0,VALID,24.2866,VALID,151,VALID,1.27773,
2012-06-15, 01:19:04,VALID,999.838,VALID,0,VALID,81.2555,VALID,0,VALID,24.2671,VALID,154,VALID,0.883203,
2012-06-15, 01:20:04,VALID,999.836,VALID,0,VALID,81.2402,VALID,0,VALID,24.2458,VALID,151,VALID,1.32187,
2012-06-15, 01:21:04,VALID,999.814,VALID,0,VALID,81.202,VALID,0,VALID,24.2671,VALID,149,VALID,1.10352,
2012-06-15, 01:22:04,VALID,999.793,VALID,0,VALID,81.2326,VALID,0,VALID,24.2458,VALID,147,VALID,0.918359,
2012-06-15, 01:23:04,VALID,999.784,VALID,0,VALID,81.1792,VALID,0,VALID,24.2458,VALID,147,VALID,1.09258,
2012-06-15, 01:24:04,VALID,999.807,VALID,0,VALID,81.1715,VALID,0,VALID,24.2458,VALID,149,VALID,0.85625,
2012-06-15, 01:25:04,VALID,999.821,VALID,0,VALID,81.1639,VALID,0,VALID,24.2458,VALID,147,VALID,1.04414,
2012-06-15, 01:26:04,VALID,999.785,VALID,0,VALID,81.1181,VALID,0,VALID,24.2653,VALID,147,VALID,0.811328,
2012-06-15, 01:27:04,VALID,999.826,VALID,0,VALID,81.1944,VALID,0,VALID,24.2263,VALID,147,VALID,0.726563,
2012-06-15, 01:28:04,VALID,999.845,VALID,0,VALID,81.3089,VALID,0,VALID,24.2086,VALID,125,VALID,0.778125,
2012-06-15, 01:29:04,VALID,999.854,VALID,0,VALID,81.3394,VALID,0,VALID,24.1891,VALID,130,VALID,0.848047,
2012-06-15, 01:30:04,VALID,999.856,VALID,0,VALID,81.4843,VALID,0,VALID,24.1891,VALID,131,VALID,0.692578,
2012-06-15, 01:31:04,VALID,999.828,VALID,0,VALID,81.5072,VALID,0,VALID,24.1696,VALID,131,VALID,0.696484,
2012-06-15, 01:32:04,VALID,999.855,VALID,0,VALID,81.6293,VALID,0,VALID,24.1482,VALID,131,VALID,0.675781,
2012-06-15, 01:33:04,VALID,999.807,VALID,0,VALID,81.7819,VALID,0,VALID,24.15,VALID,128,VALID,0.701953,
2012-06-15, 01:34:04,VALID,999.854,VALID,0,VALID,81.9803,VALID,0,VALID,24.0915,VALID,124,VALID,0.693359,
2012-06-15, 01:35:04,VALID,999.805,VALID,0,VALID,82.0795,VALID,0,VALID,24.0915,VALID,109,VALID,0.811328,
2012-06-15, 01:36:04,VALID,999.845,VALID,0,VALID,82.1023,VALID,0,VALID,24.0525,VALID,109,VALID,0.7125,
2012-06-15, 01:37:04,VALID,999.821,VALID,0,VALID,82.3007,VALID,0,VALID,23.9744,VALID,109,VALID,0.455469,
2012-06-15, 01:38:04,VALID,999.849,VALID,0,VALID,82.5677,VALID,0,VALID,23.9159,VALID,109,VALID,0.221875,
2012-06-15, 01:39:04,VALID,999.812,VALID,0,VALID,83.2773,VALID,0,VALID,23.8573,VALID,109,VALID,0.227734,
2012-06-15, 01:40:04,VALID,999.829,VALID,0,VALID,84.3149,VALID,0,VALID,23.7793,VALID,109,VALID,0.254687,
2012-06-15, 01:41:04,VALID,999.833,VALID,0,VALID,86.5733,VALID,0,VALID,23.7597,VALID,109,VALID,0.234375,
2012-06-15, 01:42:04,VALID,999.804,VALID,0,VALID,87.0921,VALID,0,VALID,23.7207,VALID,109,VALID,0.412109,
2012-06-15, 01:43:04,VALID,999.854,VALID,0,VALID,87.3515,VALID,0,VALID,23.6622,VALID,100,VALID,0.600781,
2012-06-15, 01:44:04,VALID,999.845,VALID,0,VALID,87.5041,VALID,0,VALID,23.5646,VALID,99,VALID,0.544922,
2012-06-15, 01:45:04,VALID,999.865,VALID,0,VALID,88.1526,VALID,0,VALID,23.5061,VALID,70,VALID,0.785937,
2012-06-15, 01:46:04,VALID,999.874,VALID,0,VALID,88.8088,VALID,0,VALID,23.4475,VALID,59,VALID,0.741797,
2012-06-15, 01:47:04,VALID,999.885,VALID,0,VALID,89.7091,VALID,0,VALID,23.4085,VALID,59,VALID,0.974219,
2012-06-15, 01:48:04,VALID,999.867,VALID,0,VALID,89.9303,VALID,0,VALID,23.3305,VALID,59,VALID,0.814844,
2012-06-15, 01:49:04,VALID,999.878,VALID,0,VALID,89.6709,VALID,0,VALID,23.2524,VALID,48,VALID,0.682031,
2012-06-15, 01:50:04,VALID,999.863,VALID,0,VALID,89.8617,VALID,0,VALID,23.1939,VALID,48,VALID,0.651953,
2012-06-15, 01:51:04,VALID,999.87,VALID,0,VALID,89.8159,VALID,0,VALID,23.1354,VALID,48,VALID,0.477344,
2012-06-15, 01:52:04,VALID,999.86,VALID,0,VALID,90.0524,VALID,0,VALID,23.0573,VALID,48,VALID,0.649609,
2012-06-15, 01:53:04,VALID,999.867,VALID,0,VALID,90.3805,VALID,0,VALID,22.9988,VALID,48,VALID,0.590234,
2012-06-15, 01:54:04,VALID,999.818,VALID,0,VALID,90.7467,VALID,0,VALID,22.9403,VALID,48,VALID,0.518359,
2012-06-15, 01:55:04,VALID,999.828,VALID,0,VALID,91.0137,VALID,0,VALID,22.8818,VALID,48,VALID,0.478125,
2012-06-15, 01:56:04,VALID,999.759,VALID,0,VALID,91.2731,VALID,0,VALID,22.8623,VALID,48,VALID,0.459375,
2012-06-15, 01:57:04,VALID,999.78,VALID,0,VALID,91.1663,VALID,0,VALID,22.8037,VALID,48,VALID,0.136719,
2012-06-15, 01:58:04,VALID,999.762,VALID,0,VALID,91.2731,VALID,0,VALID,22.7452,VALID,48,VALID,0,
2012-06-15, 01:59:04,VALID,999.753,VALID,0,VALID,91.4715,VALID,0,VALID,22.6867,VALID,48,VALID,0.321094,
2012-06-15, 02:00:04,VALID,999.751,VALID,0,VALID,91.8072,VALID,0,VALID,22.6672,VALID,48,VALID,0.321484,
2012-06-15, 02:01:04,VALID,999.737,VALID,0,VALID,91.9827,VALID,0,VALID,22.6282,VALID,48,VALID,0.467578,
2012-06-15, 02:02:04,VALID,999.739,VALID,0,VALID,92.3413,VALID,0,VALID,22.6087,VALID,48,VALID,0.462891,
2012-06-15, 02:03:04,VALID,999.725,VALID,0,VALID,92.7533,VALID,0,VALID,22.6282,VALID,48,VALID,0.403906,
2012-06-15, 02:04:04,VALID,999.721,VALID,0,VALID,92.9517,VALID,0,VALID,22.6087,VALID,48,VALID,0.373828,
2012-06-15, 02:05:04,VALID,999.723,VALID,0,VALID,93.1805,VALID,0,VALID,22.6087,VALID,48,VALID,0.490234,
2012-06-15, 02:06:04,VALID,999.709,VALID,0,VALID,93.2111,VALID,0,VALID,22.6282,VALID,48,VALID,0.476953,
2012-06-15, 02:07:04,VALID,999.721,VALID,0,VALID,93.2492,VALID,0,VALID,22.6282,VALID,48,VALID,0.494531,
2012-06-15, 02:08:04,VALID,999.737,VALID,0,VALID,93.1119,VALID,0,VALID,22.6477,VALID,48,VALID,0.475781,
2012-06-15, 02:09:04,VALID,999.713,VALID,0,VALID,92.9517,VALID,0,VALID,22.6672,VALID,48,VALID,0.564062,
2012-06-15, 02:10:04,VALID,999.696,VALID,0,VALID,92.7533,VALID,0,VALID,22.6672,VALID,48,VALID,0.530859,
2012-06-15, 02:11:04,VALID,999.706,VALID,0,VALID,92.6999,VALID,0,VALID,22.6672,VALID,48,VALID,0.479688,
2012-06-15, 02:12:04,VALID,999.7,VALID,0,VALID,92.6465,VALID,0,VALID,22.6672,VALID,48,VALID,0.395312,
2012-06-15, 02:13:04,VALID,999.661,VALID,0,VALID,92.41,VALID,0,VALID,22.6477,VALID,48,VALID,0.480859,
2012-06-15, 02:14:04,VALID,999.697,VALID,0,VALID,92.5168,VALID,0,VALID,22.6069,VALID,48,VALID,0.417578,
2012-06-15, 02:15:04,VALID,999.689,VALID,0,VALID,92.6541,VALID,0,VALID,22.5892,VALID,48,VALID,0.300781,
2012-06-15, 02:16:04,VALID,999.71,VALID,0,VALID,92.8372,VALID,0,VALID,22.5289,VALID,48,VALID,0.366406,
2012-06-15, 02:17:04,VALID,999.68,VALID,0,VALID,93.0737,VALID,0,VALID,22.5323,VALID,48,VALID,0.500391,
2012-06-15, 02:18:04,VALID,999.666,VALID,0,VALID,93.1805,VALID,0,VALID,22.4721,VALID,48,VALID,0.433203,
2012-06-15, 02:19:04,VALID,999.677,VALID,0,VALID,93.4247,VALID,0,VALID,22.4314,VALID,48,VALID,0.440625,
2012-06-15, 02:20:04,VALID,999.697,VALID,0,VALID,93.6231,VALID,0,VALID,22.4119,VALID,48,VALID,0.463672,
2012-06-15, 02:21:04,VALID,999.685,VALID,0,VALID,93.7833,VALID,0,VALID,22.4314,VALID,48,VALID,0.241797,
2012-06-15, 02:22:04,VALID,999.672,VALID,0,VALID,93.7985,VALID,0,VALID,22.4314,VALID,48,VALID,0.156641,
2012-06-15, 02:23:04,VALID,999.612,VALID,0,VALID,93.7528,VALID,0,VALID,22.4331,VALID,48,VALID,0.0886719,
2012-06-15, 02:24:04,VALID,999.636,VALID,0,VALID,93.7451,VALID,0,VALID,22.3941,VALID,48,VALID,0,
2012-06-15, 02:25:04,VALID,999.641,VALID,0,VALID,93.8138,VALID,0,VALID,22.3534,VALID,48,VALID,0,
2012-06-15, 02:26:04,VALID,999.597,VALID,0,VALID,94.0274,VALID,0.104696,VALID,22.3746,VALID,48,VALID,0.393359,
2012-06-15, 02:27:04,VALID,999.616,VALID,0,VALID,94.2182,VALID,0,VALID,22.3729,VALID,48,VALID,0.457031,
2012-06-15, 02:28:04,VALID,999.633,VALID,0,VALID,94.3326,VALID,0,VALID,22.3941,VALID,48,VALID,0.514063,
2012-06-15, 02:29:04,VALID,999.615,VALID,0,VALID,94.3631,VALID,0,VALID,22.3534,VALID,48,VALID,0.319922,
2012-06-15, 02:30:04,VALID,999.612,VALID,0,VALID,94.3021,VALID,0,VALID,22.3551,VALID,48,VALID,0.596484,
2012-06-15, 02:31:04,VALID,999.589,VALID,0,VALID,94.3479,VALID,0,VALID,22.3339,VALID,48,VALID,0.622656,
2012-06-15, 02:32:04,VALID,999.56,VALID,0,VALID,94.4318,VALID,0.104696,VALID,22.3356,VALID,48,VALID,0.659766,
2012-06-15, 02:33:04,VALID,999.578,VALID,0,VALID,94.4547,VALID,0,VALID,22.3161,VALID,48,VALID,0.329297,
2012-06-15, 02:34:04,VALID,999.567,VALID,0,VALID,94.5157,VALID,0.104696,VALID,22.2559,VALID,48,VALID,0.399219,
2012-06-15, 02:35:04,VALID,999.533,VALID,0,VALID,94.5997,VALID,0.104696,VALID,22.2364,VALID,48,VALID,0.587109,
2012-06-15, 02:36:04,VALID,999.573,VALID,0,VALID,94.7599,VALID,0,VALID,22.2771,VALID,48,VALID,0.538672,
2012-06-15, 02:37:04,VALID,999.549,VALID,0,VALID,94.8667,VALID,0,VALID,22.2754,VALID,48,VALID,0.232031,
2012-06-15, 02:38:04,VALID,999.506,VALID,0,VALID,94.882,VALID,0,VALID,22.2559,VALID,48,VALID,0.121875,
2012-06-15, 02:39:04,VALID,999.54,VALID,0,VALID,94.8362,VALID,0,VALID,22.2381,VALID,48,VALID,0,
2012-06-15, 02:40:04,VALID,999.482,VALID,0,VALID,94.7446,VALID,0.104696,VALID,22.1779,VALID,48,VALID,0,
2012-06-15, 02:41:04,VALID,999.513,VALID,0,VALID,94.7446,VALID,0,VALID,22.1389,VALID,48,VALID,0,
2012-06-15, 02:42:04,VALID,999.501,VALID,0,VALID,94.7751,VALID,0,VALID,22.16,VALID,48,VALID,0.309766,
2012-06-15, 02:43:04,VALID,999.514,VALID,0,VALID,94.882,VALID,0,VALID,22.16,VALID,48,VALID,0.269922,
2012-06-15, 02:44:04,VALID,999.484,VALID,0,VALID,94.9811,VALID,0,VALID,22.1389,VALID,48,VALID,0,
2012-06-15, 02:45:04,VALID,999.514,VALID,0,VALID,95.0345,VALID,0,VALID,22.1194,VALID,48,VALID,0,
2012-06-15, 02:46:04,VALID,999.479,VALID,0,VALID,95.0727,VALID,0,VALID,22.1194,VALID,48,VALID,0,
2012-06-15, 02:47:04,VALID,999.465,VALID,0,VALID,95.1032,VALID,0,VALID,22.0998,VALID,48,VALID,0,
2012-06-15, 02:48:04,VALID,999.461,VALID,0,VALID,95.1719,VALID,0.104696,VALID,22.1194,VALID,48,VALID,0.392188,
2012-06-15, 02:49:04,VALID,999.428,VALID,0,VALID,95.2634,VALID,0,VALID,22.16,VALID,48,VALID,0.49375,
2012-06-15, 02:50:04,VALID,999.386,VALID,0,VALID,95.3245,VALID,0,VALID,22.1389,VALID,48,VALID,0.593359,
2012-06-15, 02:51:04,VALID,999.371,VALID,0,VALID,95.3474,VALID,0,VALID,22.1389,VALID,31,VALID,0.853906,
2012-06-15, 02:52:04,VALID,999.363,VALID,0,VALID,95.3779,VALID,0,VALID,22.1405,VALID,31,VALID,1.05625,
2012-06-15, 02:53:04,VALID,999.321,VALID,0,VALID,95.355,VALID,0,VALID,22.0803,VALID,31,VALID,1.16719,
2012-06-15, 02:54:04,VALID,999.352,VALID,0,VALID,95.3168,VALID,0.104696,VALID,22.0413,VALID,31,VALID,1.23516,
2012-06-15, 02:55:04,VALID,999.347,VALID,0,VALID,95.1337,VALID,0.104696,VALID,21.9438,VALID,31,VALID,1.18555,
2012-06-15, 02:56:04,VALID,999.333,VALID,0,VALID,95.0803,VALID,0,VALID,21.926,VALID,31,VALID,0.972266,
2012-06-15, 02:57:04,VALID,999.366,VALID,0,VALID,95.004,VALID,0.104696,VALID,21.8463,VALID,32,VALID,0.953906,
2012-06-15, 02:58:04,VALID,999.352,VALID,0,VALID,94.9888,VALID,0,VALID,21.8268,VALID,37,VALID,1.00977,
2012-06-15, 02:59:04,VALID,999.329,VALID,0,VALID,95.0956,VALID,0,VALID,21.8675,VALID,37,VALID,1.32344,
2012-06-15, 03:00:04,VALID,999.328,VALID,0,VALID,95.2558,VALID,0,VALID,21.9065,VALID,37,VALID,1.31875,
2012-06-15, 03:01:04,VALID,999.339,VALID,0,VALID,95.3474,VALID,0,VALID,21.9065,VALID,37,VALID,1.05352,
2012-06-15, 03:02:04,VALID,999.37,VALID,0,VALID,95.4084,VALID,0.104696,VALID,21.8853,VALID,40,VALID,0.942969,
2012-06-15, 03:03:04,VALID,999.342,VALID,0,VALID,95.4465,VALID,0,VALID,21.8853,VALID,40,VALID,0.682422,
2012-06-15, 03:04:04,VALID,999.307,VALID,0,VALID,95.4771,VALID,0,VALID,21.8887,VALID,40,VALID,0.615234,
2012-06-15, 03:05:04,VALID,999.312,VALID,0,VALID,95.5076,VALID,0,VALID,21.8675,VALID,40,VALID,0.603125,
2012-06-15, 03:06:04,VALID,999.325,VALID,0,VALID,95.5152,VALID,0,VALID,21.8887,VALID,40,VALID,0.939453,
2012-06-15, 03:07:04,VALID,999.33,VALID,0,VALID,95.561,VALID,0,VALID,21.9082,VALID,40,VALID,1.0332,
2012-06-15, 03:08:04,VALID,999.373,VALID,0,VALID,95.5915,VALID,0,VALID,21.9472,VALID,40,VALID,1.18867,
2012-06-15, 03:09:04,VALID,999.334,VALID,0,VALID,95.5991,VALID,0,VALID,21.9277,VALID,40,VALID,1.04844,
2012-06-15, 03:10:04,VALID,999.343,VALID,0,VALID,95.5534,VALID,0,VALID,21.887,VALID,40,VALID,0.735156,
2012-06-15, 03:11:04,VALID,999.3,VALID,0,VALID,95.4771,VALID,0,VALID,21.8692,VALID,40,VALID,0.54375,
2012-06-15, 03:12:04,VALID,999.289,VALID,0,VALID,95.4084,VALID,0,VALID,21.809,VALID,40,VALID,0.499609,
2012-06-15, 03:13:04,VALID,999.266,VALID,0,VALID,95.3474,VALID,0,VALID,21.7895,VALID,40,VALID,0.999219,
2012-06-15, 03:14:04,VALID,999.263,VALID,0,VALID,95.3931,VALID,0,VALID,21.8285,VALID,40,VALID,1.29648,
2012-06-15, 03:15:04,VALID,999.278,VALID,0,VALID,95.416,VALID,0,VALID,21.8285,VALID,40,VALID,1.14492,
2012-06-15, 03:16:04,VALID,999.268,VALID,0,VALID,95.4771,VALID,0,VALID,21.848,VALID,40,VALID,1.21367,
2012-06-15, 03:17:04,VALID,999.258,VALID,0,VALID,95.5,VALID,0,VALID,21.8692,VALID,40,VALID,1.08711,
2012-06-15, 03:18:04,VALID,999.246,VALID,0,VALID,95.5,VALID,0,VALID,21.8692,VALID,40,VALID,1.14844,
2012-06-15, 03:19:04,VALID,999.194,VALID,0,VALID,95.4389,VALID,0,VALID,21.8301,VALID,34,VALID,1.47266,
2012-06-15, 03:20:04,VALID,999.189,VALID,0,VALID,95.3931,VALID,0,VALID,21.7911,VALID,28,VALID,1.70547,
2012-06-15, 03:21:04,VALID,999.201,VALID,0,VALID,95.355,VALID,0,VALID,21.7911,VALID,29,VALID,1.39453,
2012-06-15, 03:22:04,VALID,999.161,VALID,0,VALID,95.3245,VALID,0,VALID,21.731,VALID,29,VALID,1.49453,
2012-06-15, 03:23:04,VALID,999.147,VALID,0,VALID,95.3245,VALID,0,VALID,21.7521,VALID,29,VALID,1.56133,
2012-06-15, 03:24:04,VALID,999.167,VALID,0,VALID,95.3626,VALID,0,VALID,21.731,VALID,29,VALID,1.47109,
2012-06-15, 03:25:04,VALID,999.142,VALID,0,VALID,95.3321,VALID,0,VALID,21.692,VALID,29,VALID,1.18789,
2012-06-15, 03:26:04,VALID,999.136,VALID,0,VALID,95.355,VALID,0,VALID,21.6725,VALID,29,VALID,1.18906,
2012-06-15, 03:27:04,VALID,999.146,VALID,0,VALID,95.3474,VALID,0,VALID,21.653,VALID,29,VALID,1.04727,
2012-06-15, 03:28:04,VALID,999.167,VALID,0,VALID,95.3245,VALID,0,VALID,21.614,VALID,29,VALID,0.905078,
2012-06-15, 03:29:04,VALID,999.112,VALID,0,VALID,95.355,VALID,0,VALID,21.6351,VALID,29,VALID,0.620313,
2012-06-15, 03:30:04,VALID,999.141,VALID,0,VALID,95.4008,VALID,0,VALID,21.6351,VALID,29,VALID,0.571484,
2012-06-15, 03:31:04,VALID,999.122,VALID,0,VALID,95.4618,VALID,0,VALID,21.6351,VALID,29,VALID,0.575,
2012-06-15, 03:32:04,VALID,999.121,VALID,0,VALID,95.5152,VALID,0,VALID,21.6741,VALID,29,VALID,0.508594,
2012-06-15, 03:33:04,VALID,999.104,VALID,0,VALID,95.561,VALID,0,VALID,21.6936,VALID,29,VALID,0.757031,
2012-06-15, 03:34:04,VALID,999.117,VALID,0,VALID,95.5991,VALID,0,VALID,21.7115,VALID,29,VALID,0.589844,
2012-06-15, 03:35:04,VALID,999.08,VALID,0,VALID,95.5915,VALID,0,VALID,21.7115,VALID,29,VALID,0.617188,
2012-06-15, 03:36:04,VALID,999.13,VALID,0,VALID,95.6068,VALID,0,VALID,21.731,VALID,29,VALID,0.601172,
2012-06-15, 03:37:04,VALID,999.106,VALID,0,VALID,95.5991,VALID,0,VALID,21.7505,VALID,29,VALID,0.329297,
2012-06-15, 03:38:04,VALID,999.125,VALID,0,VALID,95.6297,VALID,0,VALID,21.7895,VALID,29,VALID,0.455078,
2012-06-15, 03:39:04,VALID,999.133,VALID,0,VALID,95.6449,VALID,0,VALID,21.7895,VALID,29,VALID,0.594141,
2012-06-15, 03:40:04,VALID,999.118,VALID,0,VALID,95.6297,VALID,0,VALID,21.8496,VALID,29,VALID,0.596484,
2012-06-15, 03:41:04,VALID,999.117,VALID,0,VALID,95.6144,VALID,0,VALID,21.8496,VALID,29,VALID,0.550781,
2012-06-15, 03:42:04,VALID,999.107,VALID,0,VALID,95.5991,VALID,0,VALID,21.8692,VALID,29,VALID,0.686719,
2012-06-15, 03:43:04,VALID,999.085,VALID,0,VALID,95.561,VALID,0,VALID,21.848,VALID,29,VALID,0.491016,
2012-06-15, 03:44:04,VALID,999.059,VALID,0,VALID,95.5457,VALID,0,VALID,21.8496,VALID,29,VALID,0.589844,
2012-06-15, 03:45:04,VALID,999.102,VALID,0,VALID,95.5076,VALID,0,VALID,21.8496,VALID,29,VALID,0.487109,
2012-06-15, 03:46:04,VALID,999.082,VALID,0,VALID,95.5076,VALID,0,VALID,21.8285,VALID,29,VALID,0.426172,